K1UTS Weather Reports


time (UTC)temp
C
wind
direction
speed
KPH
gust
KPH
rain 1hr
cm
rain 24hr
cm
rain mn
cm
humidity
%
barometer
mb
20230131234544 -3 63 1.6 4.8 0.00 0.08 0.08 56 1021.7
20230131233041 -3 336 0.0 6.4 0.00 0.08 0.08 57 1021.7
20230131231540 -3 333 0.0 3.2 0.00 0.08 0.08 61 1021.6
20230131230048 -3 36 0.0 6.4 0.00 0.08 0.08 57 1021.5
20230131224536 -2 88 1.6 6.4 0.00 0.08 0.08 57 1021.3
20230131223031 -2 336 1.6 4.8 0.00 0.08 0.08 57 1021.0
20230131221534 -2 340 0.0 6.4 0.00 0.08 0.08 56 1020.8
20230131220025 -2 346 1.6 4.8 0.00 0.08 0.08 52 1020.7
20230131214521 -1 338 0.0 4.8 0.00 0.08 0.08 55 1020.4
20230131213020 -1 337 1.6 4.8 0.00 0.08 0.08 51 1020.4
20230131211518 -1 336 0.0 3.2 0.00 0.08 0.08 51 1020.4
20230131210015 -1 5 1.6 6.4 0.00 0.08 0.08 48 1020.3
20230131204513 0 342 0.0 6.4 0.00 0.08 0.08 49 1020.1
20230131203013 0 65 1.6 4.8 0.00 0.08 0.08 57 1020.0
20230131201512 0 285 1.6 6.4 0.00 0.08 0.08 54 1019.8
20230131200009 0 351 1.6 4.8 0.00 0.08 0.08 54 1019.8
20230131194508 0 347 1.6 4.8 0.00 0.08 0.08 56 1019.8
20230131193013 0 335 1.6 4.8 0.00 0.08 0.08 55 1019.6
20230131191507 0 13 1.6 4.8 0.00 0.08 0.08 58 1019.5
20230131190005 0 31 1.6 4.8 0.00 0.08 0.08 57 1019.3
20230131184507 0 355 3.2 9.7 0.00 0.08 0.08 57 1019.3
20230131183004 1 355 3.2 6.4 0.00 0.08 0.08 59 1019.2
20230131181503 0 11 1.6 6.4 0.00 0.08 0.08 60 1019.1
20230131180002 0 346 1.6 6.4 0.00 0.08 0.08 59 1019.1
20230131174501 0 51 0.0 4.8 0.00 0.08 0.08 65 1019.0
20230131173002 0 331 1.6 6.4 0.00 0.08 0.08 62 1019.1
20230131171607 0 317 1.6 4.8 0.03 0.08 0.08 60 1019.2
20230131170059 1 332 1.6 4.8 0.03 0.08 0.08 60 1019.3
20230131164558 0 11 1.6 9.7 0.03 0.08 0.08 62 1019.4
20230131163056 1 331 1.6 4.8 0.05 0.08 0.08 66 1019.6
20230131161602 1 324 1.6 4.8 0.03 0.05 0.05 65 1019.8
20230131160053 0 272 0.0 4.8 0.05 0.05 0.05 68 1019.8
20230131154552 1 42 0.0 3.2 0.05 0.05 0.05 71 1019.7
20230131153053 0 140 0.0 3.2 0.03 0.03 0.03 75 1019.7
20230131151600 1 342 0.0 4.8 0.03 0.03 0.03 80 1019.5
20230131150050 0 336 0.0 1.6 0.00 0.00 0.00 84 1019.5
20230131144544 0 337 0.0 1.6 0.00 0.00 0.00 86 1019.1
20230131143045 0 337 0.0 1.6 0.00 0.00 0.00 87 1019.1
20230131141542 0 337 0.0 0.0 0.00 0.00 0.00 89 1018.9
20230131140055 0 337 0.0 0.0 0.00 0.00 0.00 89 1018.9
20230131134541 0 337 0.0 1.6 0.00 0.00 0.00 89 1018.9
20230131133045 -1 337 0.0 0.0 0.00 0.00 0.00 90 1018.6
20230131131538 -1 337 0.0 0.0 0.00 0.00 0.00 90 1018.6
20230131130051 -1 337 0.0 0.0 0.00 0.00 0.00 89 1018.5
20230131124539 -1 337 0.0 0.0 0.00 0.00 0.00 90 1018.3
20230131123036 -1 337 0.0 0.0 0.00 0.00 0.00 91 1018.3
20230131121535 -1 337 0.0 0.0 0.00 0.00 0.00 92 1018.1
20230131120034 -1 337 0.0 0.0 0.00 0.00 0.00 92 1018.0
20230131114537 -1 337 0.0 0.0 0.00 0.00 0.00 92 1017.9
20230131113032 -1 337 0.0 0.0 0.00 0.00 0.00 93 1017.7
20230131111534 -1 337 0.0 1.6 0.00 0.00 0.00 93 1017.6
20230131110027 -1 337 0.0 3.2 0.00 0.00 0.00 93 1017.5
20230131104529 -1 350 0.0 3.2 0.00 0.00 0.00 93 1017.6
20230131103025 0 344 0.0 3.2 0.00 0.00 0.00 94 1017.1
20230131101524 0 5 0.0 3.2 0.00 0.00 0.00 94 1017.1
20230131100020 0 112 0.0 1.6 0.00 0.00 0.00 94 1016.8
20230131094520 0 113 0.0 1.6 0.00 0.00 0.00 94 1016.8
20230131093018 0 113 0.0 1.6 0.00 0.00 0.00 94 1016.5
20230131091524 0 112 0.0 1.6 0.00 0.00 0.00 93 1016.6
20230131090015 0 112 0.0 1.6 0.00 0.00 0.00 93 1016.4
20230131084519 0 112 0.0 3.2 0.00 0.00 0.00 93 1016.2
20230131083013 0 343 0.0 1.6 0.00 0.00 0.00 93 1016.1
20230131081511 0 343 0.0 0.0 0.00 0.00 0.00 92 1015.9
20230131080010 0 343 0.0 1.6 0.00 0.00 0.00 92 1016.4
20230131074504 1 343 0.0 1.6 0.00 0.00 0.00 91 1015.8
20230131073008 1 343 0.0 0.0 0.00 0.00 0.00 90 1016.1
20230131071600 1 343 0.0 1.6 0.00 0.00 0.00 89 1016.2
20230131070056 1 343 0.0 3.2 0.00 0.00 0.00 89 1015.8
20230131064553 1 343 0.0 1.6 0.00 0.00 0.00 89 1015.5
20230131063052 1 343 0.0 0.0 0.00 0.00 0.00 89 1015.5
20230131061554 1 343 0.0 1.6 0.00 0.00 0.00 89 1015.4
20230131060106 1 343 0.0 1.6 0.00 0.00 0.00 89 1015.3
20230131054555 1 343 0.0 1.6 0.00 0.00 0.00 89 1015.4
20230131053050 1 343 0.0 3.2 0.00 0.00 0.00 89 1015.3
20230131051545 1 343 0.0 1.6 0.00 0.00 0.00 89 1015.6
20230131050046 2 343 0.0 1.6 0.00 0.00 0.00 88 1015.4
20230131044556 2 343 0.0 4.8 0.00 0.00 0.00 87 1015.7
20230131043043 2 346 1.6 4.8 0.00 0.00 0.00 86 1015.7
20230131041539 2 340 0.0 4.8 0.00 0.00 0.00 86 1015.8
20230131040040 3 350 3.2 6.4 0.00 0.00 0.00 86 1015.7
20230131034542 3 323 1.6 3.2 0.00 0.00 0.00 86 1015.5
20230131033037 3 326 1.6 3.2 0.00 0.00 0.00 87 1015.6
20230131031542 3 278 0.0 3.2 0.00 0.00 0.00 88 1015.2
20230131030048 3 270 1.6 3.2 0.00 0.00 0.00 87 1015.1
20230131024534 3 194 0.0 1.6 0.00 0.00 0.00 86 1015.1
20230131023036 3 194 0.0 1.6 0.00 0.00 0.00 86 1015.1
20230131021610 3 194 0.0 1.6 0.00 0.00 0.00 85 1015.1
20230131020032 3 194 0.0 0.0 0.00 0.00 0.00 84 1015.2
20230131014532 3 194 0.0 1.6 0.00 0.00 0.00 83 1015.2
20230131013034 3 194 0.0 1.6 0.00 0.00 0.00 83 1015.1
20230131011547 3 194 0.0 0.0 0.00 0.00 0.00 82 1015.1
20230131010032 3 194 0.0 1.6 0.00 0.00 0.00 81 1015.2
20230131004531 3 194 0.0 0.0 0.00 0.00 0.00 81 1015.5
20230131003035 3 194 0.0 0.0 0.00 0.00 0.00 81 1015.5
20230131001530 3 194 0.0 0.0 0.00 0.00 0.00 80 1015.7
20230131000030 4 194 0.0 1.6 0.00 0.00 0.00 79 1015.6